Miscellaneous Local Product
Issued by NWS North Platte, NE

Home | Current Version | Previous Version | Graphics & Text | Print | Product List | Glossary On
Versions: 1 2 3 4 5 6 7 8 9 10 11 12 13 14 15 16 17 18 19 20 21 22 23 24 25 26 27 28 29 30 31 32 33 34 35 36 37 38 39 40 41 42 43 44 45 46 47 48 49 50
598
AXUS43 KLBF 230010
MISLBF


WESTERN AND NORTH CENTRAL NEBRASKA HOURLY WEATHER ROUNDUP
NATIONAL WEATHER SERVICE NORTH PLATTE NE
600 PM CST WED FEB 22 2017

NOTE: "FAIR" INDICATES FEW OR NO CLOUDS BELOW 12,000 FEET WITH NO
SIGNIFICANT WEATHER AND/OR OBSTRUCTIONS TO VISIBILITY.

NOTE: STATIONS NOT REPORTING VARIABLES SUCH AS SKY/WEATHER OR
PRESSURE ARE PROVIDED BY RAWS AND APRS NETWORKS AND ARE NOT UNDER
NATIONAL WEATHER SERVICE QUALITY CONTROL.

...OBSERVATIONS IN AND NEAR THE EASTERN PANHANDLE OF NEBRASKA...

CITY           SKY/WX    TMP DP  RH WIND       PRES   REMARKS
PINE RIDGE     CLOUDY    47  31  53 N21G30    29.81R
CHADRON        PTCLDY    51  22  31 N10       29.79R
ALLIANCE       CLOUDY    50  12  21 NW13      29.77R
SIDNEY         CLEAR     52  15  23 N14       29.79R
$$

...OBSERVATIONS IN NORTHERN NEBRASKA AND FAR SOUTHERN SOUTH DAKOTA...

CITY           SKY/WX    TMP DP  RH WIND       PRES   REMARKS
WINNER         FAIR      50  37  61 N20G30    29.79R
VALENTINE      CLEAR     52  25  35 N13       29.77R
THEDFORD       MOCLDY    56  25  30 N5        29.77R
AINSWORTH      CLEAR     51  28  40 N7        29.77R
O`NEILL        CLEAR     54  31  42 NW7       29.77R
ORD            CLEAR     58  29  33 N9        29.74R
BROKEN BOW     CLEAR     58  25  28 N12       29.74R
VALENTINE NWR    N/A     56  24  28 N7G16       N/A
BUTTE            N/A     51  38  60 N6          N/A
HALSEY           N/A     59  20  22 NW6G15      N/A
CHAMBERS         N/A     54  29  38 N3          N/A
EWING            N/A     55  34  45 N8          N/A
$$

...OBSERVATIONS IN SOUTHWEST NEBRASKA AND FAR NORTHEAST COLORADO...

CITY           SKY/WX    TMP DP  RH WIND       PRES   REMARKS
HOLYOKE        FAIR      61  16  17 NE9       29.76R HAZE
IMPERIAL       CLEAR     58  21  24 NE10      29.75R
OGALLALA       CLEAR     57  22  25 NE7       29.77R
NORTH PLATTE   CLEAR     59  19  21 N7        29.75S
MCCOOK         CLEAR     61  24  24 NE7       29.74R
LEXINGTON      CLEAR     59  24  25 N7        29.74R
STAPLETON        N/A     56  23  27 CALM        N/A
GOTHENBURG       N/A     60  20  21 N5          N/A
CALLAWAY         N/A     58  23  26 N5          N/A
$$

...OBSERVATIONS IN CENTRAL LINCOLN COUNTY AREA...

CITY           SKY/WX    TMP DP  RH WIND       PRES   REMARKS
N.P. AIRPORT   CLEAR     59  19  21 N7        29.75S
N.P. DOWNTOWN    N/A     59  23  25 CALM        N/A
N.P. SOUTHEAST   N/A     60  22  23 N3          N/A
N.P. HILLCREST   N/A     58  22  24 N5          N/A
$$

...SOME OBSERVATIONS FROM AROUND THE REGION...

CITY           SKY/WX    TMP DP  RH WIND       PRES   REMARKS
LARAMIE        LGT SNOW  28  25  88 N15       29.79S FOG     WCI  16
CHEYENNE       CLOUDY    39  19  44 N12G20    29.79S WCI  32
DENVER         PTCLDY    51  19  28 NE17      29.73S
AKRON          CLEAR     55  17  22 NE9       29.76S
SCOTTSBLUFF    CLOUDY    52  16  24 NW8       29.79R
RAPID CITY     CLEAR     39  29  67 N29G39    29.82R WCI  27
BISMARCK       CLOUDY    34  30  85 NE8       29.92R WCI  27
PIERRE         PTCLDY    38  32  79 N20       29.82R WCI  28
SIOUX FALLS    MOCLDY    48  40  73 NW16G25   29.73R
OMAHA          PTCLDY    64  38  38 NW16      29.69R
GRAND ISLAND   CLEAR     60  31  33 N7        29.73R
KANSAS CITY    CLOUDY    70  34  26 NW7       29.64R
WICHITA        PTCLDY    69  48  47 S8        29.67S
OKLAHOMA CITY  MOCLDY    72  41  32 SW8       29.70S
DALLAS         PTCLDY    79  45  29 S13       29.72S
AMARILLO       PTCLDY    77  29  17 W20G25    29.78S
DODGE CITY     CLEAR     71  24  17 E6        29.71S
HAYS             N/A     68  32  26 CALM      29.72R
GOODLAND       CLEAR     60  22  23 E6        29.74S
$$




USA.gov is the U.S. government's official web portal to all federal, state and local government web resources and services.